When you browse on this site, cookies collect data to enhance your experience and personalize the content and advertising you see.
Visit our Privacy Policy to learn more. By continuing to use the site, you agree to this use of cookies and data.
  • In United Kingdom
  • List of Countries
  • For 7 days
  • Water Temperature
  • Weather Map
  • Weather Widgets
  • user-avatar
    Login

    Hourly Weather Serowe

    Today, 29 February, Saturday

    Time Temperature Precipitation Wind Pressure Humidity
    00:00 +22°C° 0 mm 7 mps 668 mmHg 55%
    01:00 +21°C° 0 mm 7 mps 668 mmHg 66%
    02:00 +20°C° 0 mm 8 mps 668 mmHg 76%
    03:00 +18°C° 0 mm 8 mps 668 mmHg 76%
    04:00 +18°C° 0 mm 8 mps 668 mmHg 75%
    05:00 +18°C° 0 mm 8 mps 668 mmHg 74%
    06:00 +18°C° 0 mm 8 mps 669 mmHg 74%
    07:00 +18°C° 0 mm 8 mps 669 mmHg 73%
    08:00 +18°C° 0 mm 8 mps 669 mmHg 73%
    09:00 +20°C° 0 mm 8 mps 670 mmHg 70%
    10:00 +20°C° 0 mm 8 mps 670 mmHg 67%
    11:00 +21°C° 0 mm 8 mps 670 mmHg 64%
    12:00 +22°C° 0 mm 8 mps 669 mmHg 58%
    13:00 +24°C° 0 mm 8 mps 669 mmHg 51%
    14:00 +27°C° 0 mm 7 mps 669 mmHg 45%
    15:00 +26°C° 0 mm 7 mps 669 mmHg 45%
    16:00 +26°C° 0 mm 7 mps 668 mmHg 45%
    17:00 +26°C° 0 mm 6 mps 668 mmHg 44%
    18:00 +24°C° 0 mm 6 mps 668 mmHg 49%
    19:00 +22°C° 0 mm 5 mps 668 mmHg 54%
    20:00 +21°C° 0 mm 5 mps 669 mmHg 59%
    21:00 +20°C° 0 mm 5 mps 669 mmHg 62%
    22:00 +20°C° 0 mm 6 mps 669 mmHg 65%
    23:00 +19°C° 0 mm 6 mps 669 mmHg 68%

    Tomorrow, 1 March, Sunday

    Time Temperature Precipitation Wind Pressure Humidity
    00:00 +19°C° 0 mm 6 mps 669 mmHg 71%
    01:00 +17°C° 0 mm 6 mps 669 mmHg 73%
    02:00 +17°C° 0 mm 6 mps 669 mmHg 76%
    03:00 +16°C° 0 mm 6 mps 668 mmHg 78%
    04:00 +16°C° 0 mm 6 mps 668 mmHg 79%
    05:00 +15°C° 0 mm 6 mps 668 mmHg 81%
    06:00 +16°C° 0 mm 6 mps 669 mmHg 76%
    07:00 +16°C° 0 mm 6 mps 669 mmHg 72%
    08:00 +16°C° 0 mm 6 mps 670 mmHg 68%
    09:00 +19°C° 0 mm 6 mps 670 mmHg 60%
    10:00 +22°C° 0 mm 6 mps 670 mmHg 52%
    11:00 +24°C° 0 mm 6 mps 671 mmHg 44%
    12:00 +26°C° 0 mm 5 mps 670 mmHg 41%
    13:00 +28°C° 0 mm 5 mps 669 mmHg 38%
    14:00 +29°C° 0 mm 5 mps 669 mmHg 34%
    15:00 +29°C° 0 mm 4 mps 668 mmHg 35%
    16:00 +28°C° 0 mm 4 mps 667 mmHg 35%
    17:00 +28°C° 0 mm 3 mps 667 mmHg 35%
    18:00 +27°C° 0 mm 3 mps 667 mmHg 40%
    19:00 +25°C° 0 mm 3 mps 667 mmHg 44%
    20:00 +22°C° 0 mm 3 mps 666 mmHg 49%
    21:00 +22°C° 0 mm 3 mps 667 mmHg 51%
    22:00 +21°C° 0 mm 3 mps 667 mmHg 53%
    23:00 +20°C° 0 mm 3 mps 667 mmHg 55%

    Day after tomorrow, 2 March, Monday

    Time Temperature Precipitation Wind Pressure Humidity
    00:00 +20°C° 0 mm 3 mps 667 mmHg 56%
    01:00 +19°C° 0 mm 3 mps 667 mmHg 58%
    02:00 +19°C° 0 mm 3 mps 667 mmHg 60%
    03:00 +18°C° 0 mm 3 mps 667 mmHg 62%
    04:00 +18°C° 0 mm 3 mps 667 mmHg 64%
    05:00 +17°C° 0 mm 3 mps 667 mmHg 66%
    06:00 +18°C° 0 mm 3 mps 667 mmHg 63%
    07:00 +19°C° 0 mm 4 mps 668 mmHg 59%
    08:00 +20°C° 0 mm 4 mps 668 mmHg 56%
    09:00 +23°C° 0 mm 4 mps 668 mmHg 49%
    10:00 +26°C° 0 mm 3 mps 669 mmHg 41%
    11:00 +29°C° 0 mm 3 mps 669 mmHg 34%
    12:00 +30°C° 0 mm 3 mps 669 mmHg 31%
    13:00 +31°C° 0 mm 2 mps 668 mmHg 28%
    14:00 +34°C° 0 mm 2 mps 667 mmHg 25%
    15:00 +32°C° 0 mm 2 mps 667 mmHg 27%
    16:00 +31°C° 0 mm 2 mps 666 mmHg 29%
    17:00 +30°C° 0 mm 2 mps 665 mmHg 31%
    18:00 +29°C° 0 mm 2 mps 666 mmHg 35%
    19:00 +27°C° 0 mm 2 mps 666 mmHg 39%
    20:00 +26°C° 0 mm 3 mps 666 mmHg 43%
    21:00 +25°C° 0.1 mm 3 mps 666 mmHg 46%
    22:00 +25°C° 0.1 mm 3 mps 667 mmHg 50%
    23:00 +23°C° 0.1 mm 4 mps 667 mmHg 53%

    3 March, Tuesday

    Time Temperature Precipitation Wind Pressure Humidity
    00:00 +22°C° 0.1 mm 3 mps 667 mmHg 58%
    01:00 +21°C° 0.1 mm 3 mps 667 mmHg 63%
    02:00 +20°C° 0.1 mm 3 mps 666 mmHg 68%
    03:00 +20°C° 0 mm 3 mps 666 mmHg 73%
    04:00 +19°C° 0 mm 2 mps 666 mmHg 78%
    05:00 +18°C° 0 mm 2 mps 666 mmHg 83%
    06:00 +19°C° 0 mm 3 mps 667 mmHg 77%
    07:00 +20°C° 0 mm 4 mps 667 mmHg 72%
    08:00 +21°C° 0 mm 4 mps 668 mmHg 67%
    09:00 +23°C° 0 mm 4 mps 668 mmHg 57%
    10:00 +27°C° 0 mm 4 mps 669 mmHg 47%
    11:00 +29°C° 0 mm 3 mps 669 mmHg 37%
    12:00 +30°C° 0 mm 3 mps 669 mmHg 34%
    13:00 +31°C° 0 mm 3 mps 669 mmHg 30%
    14:00 +34°C° 0 mm 3 mps 668 mmHg 26%
    15:00 +33°C° 0 mm 4 mps 668 mmHg 28%
    16:00 +32°C° 0 mm 4 mps 668 mmHg 29%
    17:00 +30°C° 0 mm 4 mps 667 mmHg 31%
    18:00 +29°C° 0 mm 4 mps 668 mmHg 34%
    19:00 +28°C° 0 mm 4 mps 668 mmHg 38%
    20:00 +26°C° 0 mm 4 mps 668 mmHg 41%
    21:00 +25°C° 0 mm 4 mps 668 mmHg 47%
    22:00 +23°C° 0 mm 4 mps 669 mmHg 53%
    23:00 +21°C° 0 mm 4 mps 669 mmHg 59%

    4 March, Wednesday

    Time Temperature Precipitation Wind Pressure Humidity
    00:00 +21°C° 0 mm 5 mps 669 mmHg 65%
    01:00 +20°C° 0 mm 5 mps 669 mmHg 71%
    02:00 +20°C° 0 mm 5 mps 669 mmHg 76%
    03:00 +19°C° 0 mm 4 mps 669 mmHg 79%
    04:00 +18°C° 0 mm 4 mps 669 mmHg 83%
    05:00 +18°C° 0 mm 3 mps 669 mmHg 86%
    06:00 +18°C° 0 mm 4 mps 670 mmHg 79%
    07:00 +19°C° 0 mm 5 mps 670 mmHg 73%
    08:00 +20°C° 0 mm 6 mps 671 mmHg 67%
    09:00 +22°C° 0 mm 6 mps 671 mmHg 61%
    10:00 +24°C° 0 mm 6 mps 671 mmHg 54%
    11:00 +26°C° 0 mm 6 mps 671 mmHg 48%
    12:00 +27°C° 0 mm 6 mps 671 mmHg 44%
    13:00 +28°C° 0 mm 6 mps 671 mmHg 40%
    14:00 +30°C° 0 mm 6 mps 670 mmHg 36%
    15:00 +29°C° 0 mm 6 mps 670 mmHg 36%
    16:00 +29°C° 0 mm 6 mps 669 mmHg 37%
    17:00 +29°C° 0 mm 6 mps 668 mmHg 37%
    18:00 +27°C° 0 mm 5 mps 669 mmHg 42%
    19:00 +25°C° 0 mm 5 mps 669 mmHg 47%
    20:00 +22°C° 0 mm 4 mps 669 mmHg 52%
    21:00 +21°C° 0 mm 4 mps 669 mmHg 55%
    22:00 +21°C° 0 mm 4 mps 669 mmHg 57%
    23:00 +20°C° 0 mm 3 mps 669 mmHg 60%

    5 March, Thursday

    Time Temperature Precipitation Wind Pressure Humidity
    00:00 +19°C° 0 mm 3 mps 669 mmHg 59%
    01:00 +18°C° 0 mm 3 mps 669 mmHg 58%
    02:00 +18°C° 0 mm 3 mps 669 mmHg 58%
    03:00 +17°C° 0 mm 3 mps 668 mmHg 63%
    04:00 +16°C° 0 mm 3 mps 668 mmHg 69%
    05:00 +16°C° 0 mm 2 mps 668 mmHg 74%
    06:00 +17°C° 0 mm 3 mps 669 mmHg 70%
    07:00 +19°C° 0 mm 3 mps 669 mmHg 65%
    08:00 +20°C° 0 mm 4 mps 670 mmHg 61%
    09:00 +22°C° 0 mm 4 mps 670 mmHg 52%
    10:00 +26°C° 0 mm 4 mps 671 mmHg 43%
    11:00 +28°C° 0 mm 4 mps 671 mmHg 35%
    12:00 +30°C° 0 mm 4 mps 670 mmHg 30%
    13:00 +32°C° 0 mm 4 mps 670 mmHg 25%
    14:00 +33°C° 0 mm 5 mps 669 mmHg 20%
    15:00 +33°C° 0 mm 5 mps 669 mmHg 20%
    16:00 +33°C° 0 mm 5 mps 668 mmHg 20%
    17:00 +32°C° 0 mm 5 mps 668 mmHg 19%
    18:00 +29°C° 0 mm 4 mps 667 mmHg 24%
    19:00 +26°C° 0 mm 3 mps 667 mmHg 29%
    20:00 +24°C° 0 mm 2 mps 667 mmHg 34%
    21:00 +23°C° 0 mm 2 mps 667 mmHg 36%
    22:00 +21°C° 0 mm 2 mps 667 mmHg 39%
    23:00 +20°C° 0 mm 2 mps 668 mmHg 42%
    Show more